Location: Colebrook
(42.0017°N, 73.0973°W)
Time: 04:09:16
(UTC-04:00)

Courier 1B Rocket - All Passes

Search period start: 21 October 2021 00:00
Search period end: 31 October 2021 00:00
Orbit: 920 x 1202 km, 28.2° (Epoch: 20 October)

Date Brightness Start Highest point End Pass type
(mag) Time Alt. Az. Time Alt. Az. Time Alt. Az.
21 Oct - 17:07:16 10° SSW 17:11:17 18° SSE 17:15:16 10° SE daylight
21 Oct - 18:58:59 10° SW 19:03:43 23° S 19:08:27 10° SE visible
21 Oct - 20:52:12 10° SW 20:56:09 17° SSW 21:00:10 10° SSE visible
22 Oct - 16:07:14 10° SSW 16:10:35 15° SSE 16:13:52 10° SE daylight
22 Oct - 17:58:16 10° SW 18:03:00 22° S 18:07:40 10° SE daylight
22 Oct - 19:51:03 10° SW 19:55:27 20° S 19:59:51 10° SE visible
22 Oct - 21:46:52 10° SSW 21:47:46 10° SSW 21:48:40 10° SSW visible
23 Oct - 15:07:56 10° S 15:09:52 11° SSE 15:11:48 10° SE daylight
23 Oct - 16:57:39 10° SW 17:02:16 21° S 17:06:46 10° SE daylight
23 Oct - 18:50:03 10° SW 18:54:44 22° S 18:59:22 10° SE visible
23 Oct - 20:44:07 10° SW 20:47:05 14° SSW 20:50:05 10° S visible
24 Oct - 15:57:11 10° SSW 16:01:31 18° SSE 16:05:44 10° SE daylight
24 Oct - 17:49:07 10° SW 17:54:00 23° S 17:58:46 10° SE daylight
24 Oct - 19:42:32 10° SW 19:46:25 17° SSW 19:50:17 10° SSE visible
25 Oct - 14:56:58 10° SSW 15:00:46 16° SSE 15:04:28 10° SE daylight
25 Oct - 16:48:17 10° SW 16:53:15 23° S 16:58:03 10° SE daylight
25 Oct - 18:41:15 10° SW 18:45:43 20° S 18:50:07 10° SE visible
26 Oct - 13:57:16 10° S 14:00:00 13° SSE 14:02:42 10° SE daylight
26 Oct - 15:47:32 10° SW 15:52:29 22° S 15:57:14 10° SE daylight
26 Oct - 17:40:08 10° SW 17:45:00 22° S 17:49:43 10° SE daylight
26 Oct - 19:34:24 10° SW 19:37:21 14° SSW 19:40:15 10° S visible
27 Oct - 14:46:55 10° SSW 14:51:42 20° SSE 14:56:16 10° ESE daylight
27 Oct - 16:39:05 10° SW 16:44:14 24° S 16:49:11 10° SE daylight
27 Oct - 18:32:40 10° SW 18:36:39 17° SSW 18:40:35 10° SSE visible
28 Oct - 13:46:33 10° SSW 13:50:53 17° SSE 13:55:03 10° SE daylight
28 Oct - 15:38:07 10° SW 15:43:27 24° S 15:48:31 10° SE daylight
28 Oct - 17:31:15 10° WSW 17:35:57 21° SSW 17:40:29 10° SE daylight
29 Oct - 12:46:37 10° S 12:50:04 14° SSE 12:53:25 10° SE daylight
29 Oct - 14:37:16 10° SW 14:42:37 23° S 14:47:43 10° ESE daylight
29 Oct - 16:30:01 10° WSW 16:35:12 23° S 16:40:09 10° SE daylight
29 Oct - 18:24:27 10° SW 18:27:33 14° SSW 18:30:37 10° S visible
30 Oct - 11:48:01 10° SSE 11:49:15 10° SSE 11:50:28 10° SE daylight
30 Oct - 13:36:33 10° SW 13:41:46 21° SSE 13:46:45 10° ESE daylight
30 Oct - 15:28:53 10° SW 15:34:24 25° S 15:39:38 10° SE daylight
30 Oct - 17:22:36 10° WSW 17:26:52 18° SSW 17:31:00 10° SSE daylight
